Hourly Weather Rio Branco

Today, 24 September, Thursday

Time Temperature Precipitation Wind Pressure Humidity
00:00 +25°C° 0.3 mm 0 mps 747 mmHg 71%
01:00 +26°C° 0 mm 1 mps 746 mmHg 77%
02:00 +24°C° 0.2 mm 0 mps 746 mmHg 78%
03:00 +24°C° 0.2 mm 0 mps 746 mmHg 79%
04:00 +24°C° 0.2 mm 0 mps 746 mmHg 80%
05:00 +25°C° 0 mm 0 mps 747 mmHg 76%
06:00 +26°C° 0 mm 0 mps 748 mmHg 72%
07:00 +28°C° 0 mm 0 mps 748 mmHg 66%
08:00 +32°C° 0 mm 0 mps 748 mmHg 55%
09:00 +35°C° 0 mm 0 mps 748 mmHg 45%
10:00 +38°C° 0 mm 0 mps 749 mmHg 35%
11:00 +38°C° 0 mm 0 mps 748 mmHg 35%
12:00 +37°C° 0 mm 0 mps 746 mmHg 34%
13:00 +39°C° 0 mm 1 mps 745 mmHg 34%
14:00 +39°C° 0 mm 1 mps 745 mmHg 35%
15:00 +39°C° 0 mm 1 mps 744 mmHg 35%
16:00 +35°C° 0 mm 0 mps 744 mmHg 36%
17:00 +33°C° 0 mm 0 mps 744 mmHg 41%
18:00 +31°C° 0 mm 0 mps 744 mmHg 46%
19:00 +29°C° 0 mm 0 mps 744 mmHg 51%
20:00 +29°C° 0 mm 0 mps 745 mmHg 54%
21:00 +28°C° 0 mm 0 mps 745 mmHg 56%
22:00 +28°C° 0 mm 0 mps 746 mmHg 58%
23:00 +27°C° 0 mm 0 mps 746 mmHg 61%

Tomorrow, 25 September, Friday

Time Temperature Precipitation Wind Pressure Humidity
00:00 +28°C° 0 mm 1 mps 745 mmHg 63%
01:00 +28°C° 0 mm 1 mps 745 mmHg 66%
02:00 +27°C° 0 mm 1 mps 745 mmHg 70%
03:00 +27°C° 0 mm 1 mps 745 mmHg 73%
04:00 +26°C° 0 mm 1 mps 745 mmHg 76%
05:00 +28°C° 0 mm 1 mps 746 mmHg 72%
06:00 +29°C° 0 mm 1 mps 746 mmHg 68%
07:00 +30°C° 0 mm 1 mps 747 mmHg 64%
08:00 +33°C° 0 mm 1 mps 747 mmHg 54%
09:00 +36°C° 0 mm 1 mps 747 mmHg 45%
10:00 +40°C° 0 mm 1 mps 747 mmHg 36%
11:00 +40°C° 0 mm 1 mps 746 mmHg 35%
12:00 +40°C° 0 mm 1 mps 745 mmHg 35%
13:00 +39°C° 0 mm 2 mps 744 mmHg 34%
14:00 +39°C° 0 mm 1 mps 743 mmHg 35%
15:00 +39°C° 0 mm 1 mps 743 mmHg 36%
16:00 +37°C° 0 mm 1 mps 742 mmHg 37%
17:00 +35°C° 0.2 mm 1 mps 742 mmHg 47%
18:00 +32°C° 0.2 mm 1 mps 743 mmHg 56%
19:00 +29°C° 0.2 mm 1 mps 743 mmHg 65%
20:00 +29°C° 0 mm 1 mps 743 mmHg 66%
21:00 +29°C° 0 mm 1 mps 744 mmHg 67%
22:00 +29°C° 0 mm 1 mps 744 mmHg 68%
23:00 +28°C° 0 mm 1 mps 744 mmHg 70%

Day after tomorrow, 26 September, Saturday

Time Temperature Precipitation Wind Pressure Humidity
00:00 +28°C° 0 mm 1 mps 743 mmHg 71%
01:00 +27°C° 0 mm 1 mps 743 mmHg 73%
02:00 +27°C° 0 mm 1 mps 743 mmHg 74%
03:00 +27°C° 0 mm 1 mps 743 mmHg 75%
04:00 +27°C° 0 mm 1 mps 743 mmHg 76%
05:00 +28°C° 0 mm 1 mps 744 mmHg 72%
06:00 +29°C° 0 mm 1 mps 744 mmHg 68%
07:00 +30°C° 0 mm 2 mps 745 mmHg 64%
08:00 +32°C° 0 mm 2 mps 745 mmHg 55%
09:00 +36°C° 0 mm 2 mps 745 mmHg 46%
10:00 +39°C° 0 mm 2 mps 745 mmHg 37%
11:00 +40°C° 0 mm 2 mps 744 mmHg 34%
12:00 +41°C° 0 mm 2 mps 743 mmHg 30%
13:00 +42°C° 0 mm 2 mps 742 mmHg 27%
14:00 +41°C° 0 mm 2 mps 741 mmHg 29%
15:00 +40°C° 0 mm 2 mps 740 mmHg 32%
16:00 +39°C° 0 mm 2 mps 740 mmHg 34%
17:00 +36°C° 0 mm 2 mps 740 mmHg 44%
18:00 +34°C° 0 mm 2 mps 740 mmHg 53%
19:00 +30°C° 0 mm 2 mps 740 mmHg 62%
20:00 +30°C° 0 mm 2 mps 741 mmHg 63%
21:00 +29°C° 0 mm 1 mps 741 mmHg 65%
22:00 +29°C° 0 mm 1 mps 742 mmHg 66%
23:00 +28°C° 0 mm 1 mps 742 mmHg 68%

27 September, Sunday

Time Temperature Precipitation Wind Pressure Humidity
00:00 +28°C° 0 mm 1 mps 742 mmHg 71%
01:00 +27°C° 0 mm 1 mps 742 mmHg 73%
02:00 +26°C° 0.7 mm 1 mps 742 mmHg 79%
03:00 +26°C° 0.7 mm 1 mps 742 mmHg 86%
04:00 +25°C° 0.7 mm 1 mps 742 mmHg 93%
05:00 +25°C° 0.2 mm 2 mps 743 mmHg 90%
06:00 +26°C° 0.2 mm 2 mps 743 mmHg 88%
07:00 +27°C° 0.2 mm 2 mps 744 mmHg 85%
08:00 +30°C° 0 mm 2 mps 744 mmHg 71%
09:00 +34°C° 0 mm 2 mps 745 mmHg 57%
10:00 +38°C° 0 mm 3 mps 745 mmHg 43%
11:00 +38°C° 0 mm 2 mps 744 mmHg 40%
12:00 +39°C° 0 mm 2 mps 743 mmHg 38%
13:00 +39°C° 0 mm 2 mps 742 mmHg 35%
14:00 +39°C° 0 mm 2 mps 741 mmHg 36%
15:00 +39°C° 0 mm 1 mps 740 mmHg 36%
16:00 +37°C° 0 mm 1 mps 739 mmHg 37%
17:00 +35°C° 0.6 mm 2 mps 740 mmHg 54%
18:00 +30°C° 0.6 mm 4 mps 741 mmHg 71%
19:00 +26°C° 0.6 mm 5 mps 742 mmHg 89%
20:00 +26°C° 0.8 mm 3 mps 742 mmHg 90%
21:00 +26°C° 0.8 mm 2 mps 743 mmHg 92%
22:00 +23°C° 0.8 mm 0 mps 743 mmHg 94%
23:00 +23°C° 0 mm 0 mps 743 mmHg 94%

28 September, Monday

Time Temperature Precipitation Wind Pressure Humidity
00:00 +23°C° 0 mm 0 mps 743 mmHg 94%
01:00 +23°C° 0 mm 0 mps 742 mmHg 94%
02:00 +25°C° 0 mm 1 mps 742 mmHg 94%
03:00 +25°C° 0 mm 1 mps 742 mmHg 94%
04:00 +25°C° 0 mm 1 mps 742 mmHg 93%
05:00 +26°C° 0 mm 1 mps 743 mmHg 91%
06:00 +26°C° 0 mm 1 mps 744 mmHg 88%
07:00 +27°C° 0 mm 1 mps 744 mmHg 86%
08:00 +29°C° 0 mm 1 mps 745 mmHg 75%
09:00 +31°C° 0 mm 1 mps 745 mmHg 65%
10:00 +33°C° 0 mm 1 mps 746 mmHg 55%
11:00 +34°C° 0 mm 1 mps 744 mmHg 50%
12:00 +36°C° 0 mm 1 mps 743 mmHg 45%
13:00 +37°C° 0 mm 1 mps 742 mmHg 39%
14:00 +35°C° 0.9 mm 1 mps 742 mmHg 49%
15:00 +32°C° 0.9 mm 2 mps 741 mmHg 59%
16:00 +30°C° 0.9 mm 2 mps 740 mmHg 69%
17:00 +28°C° 1.2 mm 2 mps 741 mmHg 77%
18:00 +27°C° 1.2 mm 2 mps 742 mmHg 85%
19:00 +25°C° 1.2 mm 2 mps 742 mmHg 93%
20:00 +25°C° 0.4 mm 2 mps 743 mmHg 93%
21:00 +25°C° 0.4 mm 2 mps 743 mmHg 94%
22:00 +25°C° 0.4 mm 1 mps 744 mmHg 94%
23:00 +25°C° 0.9 mm 1 mps 744 mmHg 95%

29 September, Tuesday

Time Temperature Precipitation Wind Pressure Humidity
00:00 +25°C° 0.9 mm 1 mps 744 mmHg 96%
01:00 +24°C° 0.9 mm 1 mps 744 mmHg 96%
02:00 +25°C° 0.2 mm 1 mps 744 mmHg 96%
03:00 +25°C° 0.2 mm 1 mps 744 mmHg 96%
04:00 +25°C° 0.2 mm 1 mps 744 mmHg 97%
05:00 +25°C° 0.1 mm 1 mps 744 mmHg 95%
06:00 +25°C° 0.1 mm 1 mps 745 mmHg 94%
07:00 +25°C° 0.1 mm 1 mps 746 mmHg 92%
08:00 +26°C° 0 mm 1 mps 746 mmHg 87%
09:00 +27°C° 0 mm 1 mps 746 mmHg 82%
10:00 +28°C° 0 mm 1 mps 747 mmHg 76%
11:00 +26°C° 0 mm 0 mps 746 mmHg 77%
12:00 +26°C° 0 mm 0 mps 745 mmHg 77%
13:00 +26°C° 0 mm 0 mps 744 mmHg 78%
14:00 +27°C° 0 mm 0 mps 743 mmHg 73%
15:00 +27°C° 0 mm 0 mps 742 mmHg 68%
16:00 +28°C° 0 mm 0 mps 742 mmHg 63%
17:00 +27°C° 0 mm 0 mps 742 mmHg 69%
18:00 +26°C° 0 mm 0 mps 743 mmHg 74%
19:00 +24°C° 0 mm 0 mps 743 mmHg 79%
20:00 +24°C° 0 mm 0 mps 743 mmHg 80%
21:00 +26°C° 0 mm 1 mps 744 mmHg 80%
22:00 +25°C° 0 mm 1 mps 744 mmHg 81%
23:00 +25°C° 0 mm 1 mps 744 mmHg 83%
Show more